#timestamp,LO_Frequency,Hit,StdDev 
1607792415.4,286046998.7,N
1607792435.3,286046997.6,N
1607792455.1,286046996.6,N
1607792475.8,286046998.4,N
1607792495.7,286046997.2,N
1607792515.5,286046998.1,N
1607792535.3,286046998.6,N
1607792555.2,286046998.7,N
1607792575.0,286046998.7,N
1607792575.9,286046998.7,N
1607792595.8,286047000.0,N
1607792615.6,286046999.8,N
1607792635.4,286047001.2,N
1607792655.3,286046998.8,N
1607792675.1,286047000.5,N
1607792695.9,286047000.5,N
1607792715.7,286047000.2,N
1607792735.5,286047000.1,N
1607792755.4,286047001.4,N
1607792775.2,286047001.4,N
1607792795.0,286047000.2,N
1607792795.9,286047000.2,N
1607792815.8,286047002.1,N
1607792835.6,286047002.4,N
1607792855.5,286047001.7,N
1607792875.3,286047005.9,Y
1607792895.1,286047004.4,P
1607792915.9,286047004.4,N
1607792935.7,286047004.4,N
1607792955.6,286047000.0,N
1607792975.4,286047000.5,N
1607792995.2,286047001.2,N
1607793015.1,286047002.4,N
1607793016.0,286047002.4,N
1607793035.8,286047001.8,N
1607793055.6,286047001.1,N
1607793075.5,286047000.4,N
1607793095.3,286046999.7,N
1607793115.2,286046998.8,N
1607793135.9,286046999.0,N
1607793155.7,286046999.0,N
1607793175.6,286047000.0,N
1607793195.4,286047000.4,N
1607793215.2,286047002.8,N
1607793235.1,286047002.3,N
1607793236.0,286047002.3,N
1607793255.8,286047000.3,N
1607793275.7,286047000.5,N
1607793295.5,286046999.0,N
1607793315.3,286046998.9,N
1607793335.2,286046998.5,N
1607793355.9,286047000.1,N
1607793375.7,286047000.8,N
1607793395.6,286047000.2,N
1607793415.4,286046999.4,N
1607793435.3,286047000.8,N
1607793455.1,286047001.2,N
1607793456.0,286047001.2,N
1607793475.8,286046998.1,N
1607793495.7,286047000.7,N
1607793515.5,286047002.1,N
1607793535.3,286046999.9,N
1607793555.2,286047000.7,N
1607793575.0,286047000.6,N
1607793575.9,286047000.6,N
1607793595.8,286047000.8,N
1607793615.6,286047000.8,N
1607793635.4,286046998.7,N
1607793655.3,286046998.3,N
1607793675.1,286046998.4,N
1607793695.8,286046998.3,N
1607793715.7,286047001.1,N
1607793735.5,286046997.1,N
1607793755.4,286046998.6,N
1607793775.2,286046999.0,N
1607793795.0,286046995.0,Y
1607793795.9,286046995.0,P
1607793815.8,286046996.7,N
1607793835.6,286046997.1,N
1607793855.4,286046999.5,N
1607793875.3,286047001.0,N
1607793895.1,286047000.2,N
1607793915.9,286047000.5,N
1607793935.7,286046998.3,N
1607793955.5,286046997.1,N
1607793975.4,286046997.8,N
1607793995.2,286046998.8,N
1607794015.0,286046997.8,N
1607794016.0,286046997.8,N
1607794035.8,286046998.2,N
1607794055.6,286046998.7,N
1607794075.5,286046998.8,N
1607794095.3,286047001.2,N
1607794115.1,286046999.1,N
1607794135.9,286046999.5,N
1607794155.7,286046998.4,N
1607794175.5,286046997.5,N
1607794195.4,286046995.0,Y
1607794215.2,286046996.7,P
1607794235.1,286046999.3,N
1607794236.0,286046999.3,N
1607794255.8,286046997.2,N
1607794275.6,286046997.9,N
1607794295.5,286046996.2,Y
1607794315.3,286047000.8,P
1607794335.2,286047000.0,N
1607794355.9,286047000.5,N
1607794375.7,286047000.7,N
1607794395.6,286047001.3,N
1607794415.4,286047002.8,N
1607794435.2,286047000.7,N
1607794455.1,286047000.2,N
1607794456.0,286047000.2,N
1607794475.8,286047002.8,N
1607794495.7,286047005.5,Y
1607794515.5,286047004.3,P
1607794535.3,286046999.7,N
1607794555.2,286047000.8,N
1607794575.0,286047002.7,N
1607794575.9,286047002.7,N
1607794595.8,286047002.7,N
1607794615.6,286047003.8,N
1607794635.4,286047003.0,N
1607794655.3,286047002.3,N
1607794675.1,286046999.8,N
1607794695.8,286047003.9,N
1607794715.7,286047002.9,N
1607794735.5,286047003.8,N
1607794755.4,286047003.5,N
1607794775.2,286047003.1,N
1607794795.0,286047003.8,N
1607794795.9,286047003.8,N
1607794815.8,286047003.4,N
1607794835.6,286047005.7,Y
1607794855.5,286047002.8,P
1607794875.3,286046999.4,P
1607794895.1,286047001.2,N
1607794915.9,286046998.4,N
1607794935.7,286046996.5,N
1607794955.5,286047000.4,N
1607794975.4,286046998.7,N
1607794995.2,286047002.7,N
1607795015.1,286047000.3,N
1607795016.0,286047000.3,N
1607795035.8,286046998.6,N
1607795055.6,286046998.3,N
1607795075.5,286046999.0,N
1607795095.3,286047000.6,N
1607795115.1,286047000.1,N
1607795135.9,286046998.1,N
1607795155.7,286046999.1,N
1607795175.6,286046997.0,N
1607795195.4,286046998.7,N
1607795215.2,286046999.3,N
1607795235.1,286046996.6,N
1607795236.0,286046996.6,N
1607795255.8,286047002.7,N
1607795275.6,286047002.8,N
1607795295.5,286046998.1,N
1607795315.3,286046997.0,N
1607795335.1,286047000.8,N
1607795355.9,286046999.2,N
1607795375.7,286047000.4,N
1607795395.6,286047001.2,N
1607795415.4,286047001.1,N
1607795435.2,286046999.2,N
1607795455.1,286046999.0,N
1607795456.0,286046999.0,N
1607795475.8,286047000.8,N
1607795495.7,286046998.5,N
1607795515.5,286047002.5,N
1607795535.3,286047002.3,N
1607795555.2,286046999.7,N
1607795575.0,286047000.5,N
1607795575.9,286047000.5,N
1607795595.7,286047002.8,N
1607795615.6,286047004.4,N
1607795635.4,286047000.1,N
1607795655.3,286047002.4,N
1607795675.1,286047002.5,N
1607795676.0,286047002.5,N
1607795695.8,286047004.3,N
1607795715.7,286047001.0,N
1607795735.5,286047002.3,N
1607795755.3,286047004.4,N
1607795775.2,286047002.3,N
1607795795.0,286047000.7,N
1607795795.9,286047000.7,N
1607795815.8,286046998.1,N
1607795835.6,286046999.0,N
1607795855.4,286047001.1,N
1607795875.3,286046998.1,N
1607795895.1,286046999.9,N
1607795915.8,286047000.0,N
1607795935.7,286046998.2,N
1607795955.5,286046998.6,N
1607795975.4,286047000.9,N
1607795995.2,286047000.2,N
